Preview of NWS' New Version of Forecast
This preview is not operational and should not be used for support decisions.

Regional Weather Roundup (RWR)

Issued by National Weather Service (NWS)

                            
000
ASUS44 KJAN 190110
RWRMS 

MISSISSIPPI HOURLY WEATHER ROUNDUP
NATIONAL WEATHER SERVICE JACKSON MS
800 PM CDT WED SEP 18 2019

NOTE: "FAIR: INDICATES FEW OR NO CLOUDS BELOW 12,000 FEET WITH NO
SIGNIFICANT WEATHER AND/OR OBSTRUCTIONS TO VISIBILITY.

MSZ001>002-007>008-010>013-018>021-025>028-034>036-190200-
NORTHWEST MISSISSIPPI
  
CITY           SKY/WX    TMP DP  RH WIND       PRES   REMARKS
BATESVILLE     FAIR      77  72  83 CALM      29.95R                  
CLARKSDALE       N/A     86  61  42 CALM      29.95R                  
CLEVELAND      MOCLDY    88  68  51 SW6       29.94R HX  91           
GREENWOOD      FAIR      82  71  69 NE3       29.94R                  
GREENVILLE     FAIR      81  72  74 CALM      29.93R                  
OLIVE BRANCH   PTCLDY    86  66  51 NE5       29.97R                  
OXFORD         FAIR      79  66  65 CALM      29.98R                  
TUNICA           N/A     81  68  65 CALM      29.96R                  
WINONA         FAIR      77  73  85 CALM      29.96R                  
$$

MSZ003>006-009-014>017-022>024-029>033-037>039-190200-
NORTHEAST MISSISSIPPI
  
CITY           SKY/WX    TMP DP  RH WIND       PRES   REMARKS
ABERDEEN       FAIR      75  59  57 CALM      29.97R                  
COLUMBUS AFB   FAIR      79  73  80 CALM      29.95R                  
CORINTH        FAIR      79  72  78 CALM      29.98R                  
GOLDN TRIANGLE FAIR      84  70  62 CALM      29.96R                  
STARKVILLE       N/A     77  70  78 CALM      29.97R                  
TUPELO         FAIR      87  68  52 NE3       29.96R HX  90           
$$

MSZ040-058-190200-
CENTRAL MISSISSIPPI
  
CITY           SKY/WX    TMP DP  RH WIND       PRES   REMARKS
JACKSON INTL   FAIR      84  68  58 SW8       29.95S                  
JACKSON HAWKNS FAIR      86  67  52 SW6       29.96S                  
MADISON        FAIR      82  68  61 CALM      29.96S                  
MERIDIAN KEY   LGT RAIN  82  70  66 NW13      29.97R                  
MERIDIAN NAS   MOCLDY    84  69  60 CALM      29.95R                  
RAYMOND          N/A     84  73  70 W8        29.96R HX  91           
VICKSBURG VKS  MOCLDY    79  77  94 CALM      29.96S                  
$$

MSZ059>079-190200-
SOUTH MISSISSIPPI
  
CITY           SKY/WX    TMP DP  RH WIND       PRES   REMARKS
BROOKHAVEN     FAIR      79  72  78 CALM      29.99F                  
HATTIESBURG    FAIR      86  70  58 SW3       29.96R HX  90           
LAUREL         CLEAR     85  69  60 CALM      29.96R                  
MCCOMB         FAIR      79  71  76 CALM      29.98F                  
NATCHEZ        FAIR      75  72  90 CALM      29.96F                  
PINE BELT      FAIR      80  73  79 CALM      29.97R                  
$$

MSZ080>082-190200-
COASTAL MISSISSIPPI
  
CITY           SKY/WX    TMP DP  RH WIND       PRES   REMARKS
BAY ST LOUIS   CLEAR     77  75  94 CALM      29.95S                  
BILOXI         FAIR      83  74  73 CALM      29.95R                  
PASCAGOULA     FAIR      81  73  76 CALM      29.96R                  
GULFPORT       FAIR      81  73  76 CALM      29.95R                  
$$

LAZ007>009-015>016-023>026-190200-
NORTHEAST LOUISIANA
  
CITY           SKY/WX    TMP DP  RH WIND       PRES   REMARKS
BASTROP        FAIR      79  70  74 CALM      29.96S                  
TALLULAH/VBURG FAIR      82  71  69 S5        29.96S                  
VIDALIA        FAIR     N/A N/A N/A CALM      29.95F                  
$$